Weather History for Stanton, MN

Change the Weather History Date:

Thursday, March 7, 2013

  Actual Average (KLVN) Record (KLVN)
Temperature  
Mean Temperature 14 °F -  
Max Temperature 31 °F 36 °F 71 °F (1987)
Min Temperature -3 °F 15 °F -15 °F (1955)
Degree Days  
Heating Degree Days 51    
Moisture  
Dew Point 7 °F    
Average Humidity 74    
Maximum Humidity 89    
Minimum Humidity 55    
Precipitation  
Precipitation 0.02 in - - ()
Sea Level Pressure  
Sea Level Pressure 30.33 in    
Wind  
Wind Speed 2 mph (SE)    
Max Wind Speed 12 mph    
Max Gust Speed -    
Visibility 6 miles    
Events Fog    
Averages and records for this station are not official NWS values.
T = Trace of Precipitation, MM = Missing Value Source: NWS Daily Summary

Daily Weather History Graph

Daily Weather History Graph

Search for Another Location

Airport:

Trip Planner

Search our weather history database for the weather conditions in past years. The results will help you decide how hot, cold, wet, or windy it might be!

Date:

Astronomy

Mar. 07, 2013 Rise Set
Actual Time 6:38 AM CST 6:08 PM CST
Civil Twilight 6:09 AM CST 6:37 PM CST
Nautical Twilight 5:35 AM CST 7:11 PM CST
Astronomical Twilight 5:01 AM CST 7:45 PM CST
Moon 3:47 AM CST (3/7) 1:48 PM CST (3/7)
Length of Visible Light 12h 27m
Length of Day
11h 29m
Waning Crescent, 20% of the Moon is Illuminated
Mar 7
Waning Crescent
Mar 11
New
Mar 19
First Quarter
Mar 27
Full
Apr 2
Last Quarter

Hourly Weather History & Observations

Time (CST) Temp. Windchill Dew Point Humidity Pressure Visibility Wind Dir Wind Speed Gust Speed Precip Events Conditions
12:12 AM -2.6 °F -10.8 °F -7.6 °F 79% 30.34 in 10.0 mi SW 3.5 mph - N/A   Clear
12:33 AM -3.3 °F - -8.1 °F 80% 30.35 in 7.0 mi Calm Calm - N/A   Scattered Clouds
12:53 AM -2.0 °F -10.1 °F -6.7 °F 80% 30.36 in 2.5 mi SW 3.5 mph - N/A   Haze
1:12 AM -1.8 °F - -6.5 °F 80% 30.35 in 5.0 mi Calm Calm - N/A   Haze
1:33 AM -3.1 °F - -8.0 °F 80% 30.35 in 3.0 mi Calm Calm - N/A   Haze
1:53 AM -2.4 °F - -7.2 °F 80% 30.34 in 7.0 mi Calm Calm - N/A   Overcast
2:12 AM -1.7 °F - -6.0 °F 82% 30.34 in 7.0 mi Calm Calm - N/A   Overcast
2:33 AM -1.5 °F - -6.3 °F 80% 30.35 in 7.0 mi Calm Calm - N/A   Overcast
2:53 AM -3.5 °F - -8.3 °F 80% 30.35 in 7.0 mi Calm Calm - N/A   Overcast
3:13 AM -1.3 °F - -5.8 °F 81% 30.35 in 0.2 mi Calm Calm - N/A   Haze
3:32 AM -0.8 °F - -5.4 °F 81% 30.35 in 0.2 mi Calm Calm - N/A   Haze
3:53 AM -0.9 °F - -5.6 °F 81% 30.34 in 0.2 mi Calm Calm - N/A   Haze
4:13 AM -0.0 °F - -4.7 °F 81% 30.34 in 0.2 mi Calm Calm - N/A   Haze
4:33 AM -0.0 °F - -4.7 °F 81% 30.33 in 0.2 mi Calm Calm - N/A   Haze
4:52 AM -0.4 °F - -4.9 °F 81% 30.35 in 0.2 mi Calm Calm - N/A   Haze
5:13 AM -0.6 °F - -5.3 °F 81% 30.35 in 0.2 mi Calm Calm - N/A Fog Light Freezing Fog
5:33 AM -0.4 °F - -4.9 °F 81% 30.35 in 0.2 mi Calm Calm - N/A   Haze
5:52 AM -1.3 °F - -6.2 °F 80% 30.35 in 0.2 mi Calm Calm - N/A   Haze
6:13 AM -1.3 °F - -5.8 °F 81% 30.35 in 0.2 mi Calm Calm - N/A   Haze
6:33 AM -2.0 °F - -6.7 °F 80% 30.35 in 0.2 mi Calm Calm - N/A   Haze
6:52 AM -1.7 °F - -6.2 °F 81% 30.35 in 0.2 mi Calm Calm - N/A Fog Light Freezing Fog
7:13 AM -2.4 °F - -7.4 °F 79% 30.36 in 0.2 mi Calm Calm - N/A   Haze
7:33 AM -2.4 °F - -7.2 °F 80% 30.36 in 0.5 mi Calm Calm - N/A Fog Light Freezing Fog
7:52 AM -1.5 °F - -6.2 °F 80% 30.35 in 0.2 mi Calm Calm - N/A Fog Light Freezing Fog
8:13 AM -0.9 °F - -5.8 °F 80% 30.35 in 0.8 mi Calm Calm - N/A   Haze
8:32 AM 0.9 °F - -3.8 °F 81% 30.35 in 1.5 mi Calm Calm - N/A   Haze
8:53 AM 2.8 °F - -2.2 °F 79% 30.36 in 2.5 mi Calm Calm - N/A   Haze
9:13 AM 2.8 °F - -2.2 °F 79% 30.36 in 3.0 mi Calm Calm - N/A   Haze
9:33 AM 4.6 °F - -0.0 °F 81% 30.36 in 3.0 mi Calm Calm - N/A   Clear
9:52 AM 6.3 °F - 1.9 °F 82% 30.36 in 4.0 mi Calm Calm - N/A   Clear
10:13 AM 8.6 °F - 4.8 °F 85% 30.35 in 4.0 mi Calm Calm - 0.01 in   Clear
10:33 AM 11.7 °F - 7.7 °F 84% 30.35 in 4.0 mi Calm Calm - 0.01 in   Clear
10:52 AM 13.8 °F - 10.2 °F 86% 30.36 in 5.0 mi Calm Calm - 0.01 in   Clear
11:13 AM 16.9 °F - 13.6 °F 87% 30.36 in 7.0 mi Calm Calm - N/A   Clear
11:33 AM 19.2 °F - 16.2 °F 88% 30.35 in 7.0 mi Calm Calm - N/A   Clear
11:52 AM 20.3 °F - 17.6 °F 89% 30.36 in 7.0 mi Calm Calm - N/A   Clear
12:13 PM 21.2 °F - 18.5 °F 89% 30.35 in 7.0 mi Calm Calm - N/A   Clear
12:33 PM 22.1 °F - 19.4 °F 89% 30.35 in 10.0 mi Calm Calm - N/A   Clear
12:52 PM 23.7 °F - 19.6 °F 84% 30.34 in 10.0 mi Calm Calm - 0.01 in   Clear
1:13 PM 27.7 °F 21.3 °F 18.9 °F 69% 30.33 in 10.0 mi SSE 5.8 mph - N/A   Clear
1:33 PM 29.3 °F 23.2 °F 17.2 °F 61% 30.33 in 10.0 mi SSE 5.8 mph - N/A   Clear
1:52 PM 30.6 °F 25.8 °F 17.2 °F 58% 30.33 in 10.0 mi SE 4.6 mph - N/A   Clear
2:13 PM 30.4 °F 23.6 °F 16.7 °F 57% 30.31 in 10.0 mi SE 6.9 mph - N/A   Clear
2:33 PM 30.7 °F 24.9 °F 16.7 °F 56% 30.31 in 10.0 mi SE 5.8 mph - N/A   Clear
2:53 PM 30.9 °F 25.2 °F 17.6 °F 58% 30.31 in 10.0 mi SE 5.8 mph - N/A   Clear
3:12 PM 31.5 °F 24.2 °F 17.4 °F 56% 30.30 in 10.0 mi SE 8.1 mph - N/A   Clear
3:33 PM 31.6 °F 25.1 °F 17.1 °F 55% 30.30 in 10.0 mi SE 6.9 mph - N/A   Clear
3:53 PM 31.5 °F 23.5 °F 17.4 °F 56% 30.30 in 10.0 mi SE 9.2 mph - N/A   Clear
4:12 PM 31.6 °F 26.0 °F 17.6 °F 56% 30.30 in 10.0 mi SE 5.8 mph - N/A   Clear
4:33 PM 31.6 °F 27.0 °F 17.8 °F 57% 30.30 in 10.0 mi ESE 4.6 mph - N/A   Clear
4:53 PM 31.5 °F 26.8 °F 17.8 °F 57% 30.29 in 10.0 mi ESE 4.6 mph - N/A   Clear
5:13 PM 30.9 °F 26.2 °F 17.6 °F 58% 30.30 in 10.0 mi ESE 4.6 mph - N/A   Clear
5:32 PM 30.2 °F 23.4 °F 17.6 °F 60% 30.29 in 10.0 mi ESE 6.9 mph - N/A   Clear
5:53 PM 28.8 °F 23.7 °F 17.4 °F 63% 30.28 in 10.0 mi ESE 4.6 mph - N/A   Clear
7:33 PM 27.7 °F 20.4 °F 16.7 °F 63% 30.28 in 10.0 mi SE 6.9 mph - N/A   Clear
7:52 PM 28.0 °F 20.8 °F 16.5 °F 62% 30.27 in 10.0 mi ESE 6.9 mph - N/A   Clear
8:13 PM 28.0 °F 21.7 °F 16.5 °F 62% 30.27 in 10.0 mi SE 5.8 mph - N/A   Clear
8:33 PM 27.5 °F 20.2 °F 16.5 °F 63% 30.27 in 10.0 mi SE 6.9 mph - N/A   Clear
8:52 PM 27.1 °F 21.8 °F 16.5 °F 64% 30.27 in 10.0 mi SE 4.6 mph - N/A   Clear
9:13 PM 27.3 °F 20.9 °F 16.7 °F 64% 30.26 in 10.0 mi SE 5.8 mph - N/A   Clear
9:33 PM 26.8 °F 22.8 °F 16.7 °F 66% 30.26 in 10.0 mi SE 3.5 mph - N/A   Clear
9:52 PM 26.6 °F 21.2 °F 16.9 °F 67% 30.27 in 10.0 mi SE 4.6 mph - N/A   Clear
10:13 PM 25.5 °F 19.9 °F 16.5 °F 69% 30.29 in 10.0 mi SSE 4.6 mph - N/A   Clear
10:33 PM 24.8 °F 16.9 °F 16.3 °F 70% 30.29 in 10.0 mi South 6.9 mph - N/A   Clear
10:52 PM 24.6 °F 15.8 °F 16.7 °F 72% 30.30 in 10.0 mi South 8.1 mph - N/A   Clear
11:13 PM 24.3 °F 13.9 °F 17.4 °F 75% 30.30 in 10.0 mi South 10.4 mph - N/A   Clear
11:33 PM 24.3 °F 13.3 °F 17.4 °F 75% 30.30 in 10.0 mi SSE 11.5 mph - N/A   Clear
11:52 PM 24.1 °F 17.0 °F 17.6 °F 76% 30.30 in 10.0 mi South 5.8 mph - N/A   Clear